09:45
Airports
History
Links
Donate
Help keep this website running!
PayPal
Bitcoin
This page is community maintained. The information is intended for PC simulator navigation or reference.
Always use approved charts for navigation.
YGGO
GOONOO GOONOO HS
GOONOO GOONOO HS (YGGO)
Garoo, New South Wales, Australia (2340)
4
Lat/Lng:31° 19' 0.5" S / 150° 54' 59.03" E
-31.316806 / 150.916396
Elevation:1496'ft / 456mMSL
ID / ICAO:YGGO
Runways:1
Longest:12-30
Grass 933m / 3,062ft
Nearby Weather09:30 GMT 2017-10-23
Nearby weather at YSTW, Tamworth located 16.9 nautical miles from YGGO
Altimeter: 30.03
Visibility: 6.2 statute miles
Wind: 16 knots (from 050°)
Temp: 16°c / 61°f
Humidity: 67.5%

METAR: YSTW 230930Z AUTO 05016KT 9999 // OVC098 16/10 Q1017 RF00.0/000.0

(Powered by phpweather)
Runway 12 / 30
Dimensions:933.4 x 25m 3062' x 82'ft
Surface:Grass
Runway 12 [A]Runway 30 [B]
Heading:121°TH 301°TH
Lat:
Lng:
31° 18' 52.59"S
150° 54' 44"E
31° 19' 8.41"S
150° 55' 14.05"E
User Notes and Comments
31° 19' 0.5" S / 150° 54' 59.03" E
Distance To
Airport ID:
Nearby Airports
(C) Tamworth 16.9 NM
YSTW ( WX ) NNW 345°
(U) Quirindi 26.5 NM
YQDI WSW 241°
4 WAKEFIELD 27.8 NM
YWAF NNW 345°
4 Lake Keepit 37.4 NM
YKEP NW 321°
4 MANILLA 39.7 NM
YMAL NNW 343°
4 ELLERSTON 42.1 NM
YESN SE 146°
4 WALCHA 43.1 NM
YWCH ENE 60°
VFR Chart
Flight Planning at SkyVector.com